Погода в Марсале

Италия     37°47′30″N   12°26′56″E
темп.,
°C
ветер,
м/с
пор.,
м/с
влажн.,
%
обл.,
%
осадки,
мм/ч
давл.,
гПа
погр.,
м
16 апреля, пт
пт1623:00+12в5991100 2.6 1016477
02:00+12в4790100 5.1 1014388
05:00+12в5988100 4.3 1011472
08:00+13св2384100 4.4 1011308
11:00+15сз027392 0.0 1010554
14:00+15з547555 0.1 1009548
17:00+16зсз557295 0.3 1008510
20:00+14сз4477100 0.8 1009303
17 апреля, сб
сб1723:00+14ссз2379100 0.1 1010251
02:00+13ссв448296 0.1 1009335
05:00+13ссв458094 0.0 1008403
08:00+13ссв338087 0.1 1009320
11:00+14ссз327348 0.1 1010601
14:00+14ссз657415 0.4 1010649
17:00+14ссз8771100 0.1 1010672
20:00+13ссз7770100 0.2 1012568
18 апреля, вс
вс1823:00+13ссз5674100 0.3 1014663
02:00+13сз45737 0.4 1014684
05:00+13сз34693 0.0 1014667
08:00+13зсз886629 0.8 10151210
11:00+14з675716 0.1 10161544
14:00+14з79555 0.1 10171592
17:00+14зюз912642 0.2 10161446
20:00+13з1012647 0.8 10161299
19 апреля, пн
пн1923:00+13зсз796632 0.5 10171038
02:00+12зсз687266 1.8 1016778
05:00+12сз911718 1.4 1016958
08:00+13сз911665 2.4 10171253
11:00+14сз99651 0.3 10181327
14:00+15зсз910640 0.4 10181373
17:00+14зсз89692 0.1 10181100
20:00+14зсз78710 0.5 1018760
20 апреля, вт
вт2023:00+14зсз45735 0.0 1019458
02:00+14юз3473100 0.0 1018488
05:00+13ю347394 0.0 1017378
08:00+13юв5777100 0.0 1017460
11:00+16ююв91069100 0.0 1017897
14:00+16ююв10117075 0.0 1016854
17:00+16юв111272100 0.0 1013634
20:00+15юв111477100 0.0 1014664